Terminal Aerodrome Forecast
Issued by NWS

Home | Current Version | Previous Version | Text Only | Print | Product List | Glossary On
Versions: 1 2 3 4 5 6 7 8 9 10 11 12 13 14 15 16 17 18 19 20 21 22 23 24 25 26 27 28 29 30 31
000
FTUS44 KEWX 311737
TAFSSF
TAF
KSSF 311737Z 3118/0118 12009KT P6SM BKN040 BKN250
      TEMPO 3119/3121 5SM -TSRA BKN025CB
     FM312100 13009KT P6SM BKN035 BKN050 BKN250
      TEMPO 3121/0101 VRB15G25KT 4SM TSRA BR BKN035CB
     FM010600 14003KT P6SM OVC015
     FM011000 13003KT 5SM BR VCSH OVC007=

USA.gov is the U.S. government's official web portal to all federal, state and local government web resources and services.